"Datum/tijd (MEZT)";"astronomisch [cm]";"dcsmzuno-harmonie";"dcsmv6-kalman";"opzet dcsmv6-zunov4";"opzet dcsmv6-kalman";"waterstand [cm]";"verwachting RWS";"opzet [cm]";"verwachte opzet";"dcsmzuno-kalman-harmonie"
2024-04-13 07:00;;116;127;;;;;;;125
2024-04-13 07:10;;110;120;;;;;;;118
2024-04-13 07:20;;103;113;;;;;;;110
2024-04-13 07:30;;95;104;;;;;;;102
2024-04-13 07:40;;87;95;;;;;;;93
2024-04-13 07:50;;78;85;;;;;;;84
2024-04-13 08:00;;69;73;;;;;;;72
2024-04-13 08:10;;60;63;;;;;;;62
2024-04-13 08:20;;50;53;;;;;;;52
2024-04-13 08:30;;40;42;;;;;;;41
2024-04-13 08:40;;29;31;;;;;;;29
2024-04-13 08:50;;18;20;;;;;;;17
2024-04-13 09:00;;6;8;;;;;;;5
2024-04-13 09:10;;-6;-4;;;;;;;-7
2024-04-13 09:20;;-18;-16;;;;;;;-19
2024-04-13 09:30;;-31;-29;;;;;;;-31
2024-04-13 09:40;;-43;-41;;;;;;;-43
2024-04-13 09:50;;-54;-53;;;;;;;-54
2024-04-13 10:00;;-66;-64;;;;;;;-65
2024-04-13 10:10;;-77;-75;;;;;;;-75
2024-04-13 10:20;;-87;-85;;;;;;;-85
2024-04-13 10:30;;-97;-94;;;;;;;-94
2024-04-13 10:40;;-105;-102;;;;;;;-102
2024-04-13 10:50;;-113;-109;;;;;;;-109
2024-04-13 11:00;;-119;-115;;;;;;;-115
2024-04-13 11:10;;-124;-120;;;;;;;-119
2024-04-13 11:20;;-126;-122;;;;;;;-121
2024-04-13 11:30;;-128;-123;;;;;;;-122
2024-04-13 11:40;;-128;-123;;;;;;;-121
2024-04-13 11:50;;-126;-121;;;;;;;-119
2024-04-13 12:00;;-124;-118;;;;;;;-116
2024-04-13 12:10;;-122;-115;;;;;;;-112
2024-04-13 12:20;;-119;-112;;;;;;;-109
2024-04-13 12:30;;-117;-109;;;;;;;-105
2024-04-13 12:40;;-114;-105;;;;;;;-101
2024-04-13 12:50;;-111;-101;;;;;;;-98
2024-04-13 13:00;;-108;-98;;;;;;;-94
2024-04-13 13:10;;-104;-94;;;;;;;-90
2024-04-13 13:20;;-100;-90;;;;;;;-86
2024-04-13 13:30;;-96;-86;;;;;;;-82
2024-04-13 13:40;;-92;-81;;;;;;;-77
2024-04-13 13:50;;-88;-76;;;;;;;-73
2024-04-13 14:00;;-84;-70;;;;;;;-69
2024-04-13 14:10;;-79;-65;;;;;;;-64
2024-04-13 14:20;;-75;-60;;;;;;;-60
2024-04-13 14:30;;-70;-55;;;;;;;-55
2024-04-13 14:40;;-65;-51;;;;;;;-50
2024-04-13 14:50;;-60;-45;;;;;;;-44
2024-04-13 15:00;;-54;-39;;;;;;;-38
2024-04-13 15:10;;-47;-32;;;;;;;-32
2024-04-13 15:20;;-41;-25;;;;;;;-25
2024-04-13 15:30;;-33;-18;;;;;;;-18
2024-04-13 15:40;;-24;-10;;;;;;;-9
2024-04-13 15:50;;-15;0;;;;;;;0
2024-04-13 16:00;;-4;11;;;;;;;11
2024-04-13 16:10;;8;24;;;;;;;24
2024-04-13 16:20;;23;37;;;;;;;38
2024-04-13 16:30;;39;53;;;;;;;53
2024-04-13 16:40;;57;69;;;;;;;71
2024-04-13 16:50;;75;87;;;;;;;88
2024-04-13 17:00;;91;102;;;;;;;104
2024-04-13 17:10;;106;116;;;;;;;118
2024-04-13 17:20;;118;127;;;;;;;129
2024-04-13 17:30;;127;137;;;;;;;138
2024-04-13 17:40;;134;143;;;;;;;144
2024-04-13 17:50;;138;147;;;;;;;147
2024-04-13 18:00;;139;148;;;;;;;148
2024-04-13 18:10;;139;148;;;;;;;148
2024-04-13 18:20;;137;146;;;;;;;146
2024-04-13 18:30;;134;143;;;;;;;142
2024-04-13 18:40;;130;139;;;;;;;138
2024-04-13 18:50;;125;135;;;;;;;133
2024-04-13 19:00;;120;130;;;;;;;128
2024-04-13 19:10;;115;124;;;;;;;122
2024-04-13 19:20;;109;119;;;;;;;116
2024-04-13 19:30;;103;113;;;;;;;110
2024-04-13 19:40;;96;106;;;;;;;103
2024-04-13 19:50;;89;99;;;;;;;96
2024-04-13 20:00;;81;88;;;;;;;86
2024-04-13 20:10;;74;79;;;;;;;78
2024-04-13 20:20;;65;70;;;;;;;69
2024-04-13 20:30;;57;61;;;;;;;61
2024-04-13 20:40;;48;52;;;;;;;51
2024-04-13 20:50;;39;43;;;;;;;42
2024-04-13 21:00;;29;33;;;;;;;32
2024-04-13 21:10;;18;24;;;;;;;22
2024-04-13 21:20;;7;14;;;;;;;11
2024-04-13 21:30;;-4;3;;;;;;;1
2024-04-13 21:40;;-15;-8;;;;;;;-10
2024-04-13 21:50;;-27;-19;;;;;;;-21
2024-04-13 22:00;;-38;-29;;;;;;;-31
2024-04-13 22:10;;-49;-40;;;;;;;-41
2024-04-13 22:20;;-60;-49;;;;;;;-50
2024-04-13 22:30;;-70;-59;;;;;;;-59
2024-04-13 22:40;;-80;-68;;;;;;;-68
2024-04-13 22:50;;-89;-76;;;;;;;-76
2024-04-13 23:00;;-97;-85;;;;;;;-85
2024-04-13 23:10;;-105;-92;;;;;;;-92
2024-04-13 23:20;;-111;-98;;;;;;;-98
2024-04-13 23:30;;-117;-103;;;;;;;-102
2024-04-13 23:40;;-120;-106;;;;;;;-105
2024-04-13 23:50;;-123;-107;;;;;;;-106
2024-04-14 00:00;;-124;-108;;;;;;;-107
2024-04-14 00:10;;-123;-107;;;;;;;-106
2024-04-14 00:20;;-122;-106;;;;;;;-104
2024-04-14 00:30;;-120;-103;;;;;;;-101
2024-04-14 00:40;;-118;-100;;;;;;;-98
2024-04-14 00:50;;-115;-97;;;;;;;-94
2024-04-14 01:00;;-113;-93;;;;;;;-90
2024-04-14 01:10;;-110;-90;;;;;;;-86
2024-04-14 01:20;;-107;-86;;;;;;;-83
2024-04-14 01:30;;-104;-82;;;;;;;-78
2024-04-14 01:40;;-100;-78;;;;;;;-74
2024-04-14 01:50;;-97;-73;;;;;;;-70
2024-04-14 02:00;;-93;-68;;;;;;;-65
2024-04-14 02:10;;-88;-62;;;;;;;-61
2024-04-14 02:20;;-84;-57;;;;;;;-56
2024-04-14 02:30;;-79;-52;;;;;;;-51
2024-04-14 02:40;;-74;-46;;;;;;;-45
2024-04-14 02:50;;-68;-41;;;;;;;-40
2024-04-14 03:00;;-62;-35;;;;;;;-34
2024-04-14 03:10;;-56;-29;;;;;;;-28
2024-04-14 03:20;;-49;-22;;;;;;;-22
2024-04-14 03:30;;-41;-15;;;;;;;-15
2024-04-14 03:40;;-32;-8;;;;;;;-7
2024-04-14 03:50;;-23;1;;;;;;;2
2024-04-14 04:00;;-12;11;;;;;;;11
2024-04-14 04:10;;-1;22;;;;;;;22
2024-04-14 04:20;;13;34;;;;;;;35
2024-04-14 04:30;;28;48;;;;;;;48
2024-04-14 04:40;;45;63;;;;;;;64
2024-04-14 04:50;;62;79;;;;;;;80
2024-04-14 05:00;;80;96;;;;;;;97
2024-04-14 05:10;;97;111;;;;;;;113
2024-04-14 05:20;;112;125;;;;;;;127
2024-04-14 05:30;;125;137;;;;;;;139
2024-04-14 05:40;;135;147;;;;;;;149
2024-04-14 05:50;;143;155;;;;;;;156
2024-04-14 06:00;;149;160;;;;;;;160
2024-04-14 06:10;;152;162;;;;;;;163
2024-04-14 06:20;;154;163;;;;;;;163
2024-04-14 06:30;;154;162;;;;;;;162
2024-04-14 06:40;;152;160;;;;;;;160
2024-04-14 06:50;;150;157;;;;;;;157
2024-04-14 07:00;;146;154;;;;;;;153
2024-04-14 07:10;;142;150;;;;;;;148
2024-04-14 07:20;;138;145;;;;;;;143
2024-04-14 07:30;;133;140;;;;;;;138
2024-04-14 07:40;;127;134;;;;;;;132
2024-04-14 07:50;;122;129;;;;;;;126
2024-04-14 08:00;;116;120;;;;;;;118
2024-04-14 08:10;;109;112;;;;;;;111
2024-04-14 08:20;;102;104;;;;;;;103
2024-04-14 08:30;;94;96;;;;;;;95
2024-04-14 08:40;;86;87;;;;;;;86
2024-04-14 08:50;;78;78;;;;;;;77
2024-04-14 09:00;;69;69;;;;;;;68
2024-04-14 09:10;;60;60;;;;;;;59
2024-04-14 09:20;;50;50;;;;;;;49
2024-04-14 09:30;;39;40;;;;;;;38
2024-04-14 09:40;;28;30;;;;;;;27
2024-04-14 09:50;;17;19;;;;;;;16
2024-04-14 10:00;;6;7;;;;;;;6
2024-04-14 10:10;;-6;-4;;;;;;;-5
2024-04-14 10:20;;-17;-15;;;;;;;-15
2024-04-14 10:30;;-28;-25;;;;;;;-26
2024-04-14 10:40;;-39;-35;;;;;;;-35
2024-04-14 10:50;;-49;-44;;;;;;;-44
2024-04-14 11:00;;-58;-53;;;;;;;-53
2024-04-14 11:10;;-67;-62;;;;;;;-61
2024-04-14 11:20;;-75;-69;;;;;;;-69
2024-04-14 11:30;;-82;-75;;;;;;;-75
2024-04-14 11:40;;-88;-80;;;;;;;-79
2024-04-14 11:50;;-92;-83;;;;;;;-83
2024-04-14 12:00;;-95;-86;;;;;;;-85
2024-04-14 12:10;;-97;-87;;;;;;;-86
2024-04-14 12:20;;-98;-88;;;;;;;-87
2024-04-14 12:30;;-98;-87;;;;;;;-86
2024-04-14 12:40;;-97;-86;;;;;;;-84
2024-04-14 12:50;;-96;-84;;;;;;;-82
2024-04-14 13:00;;-94;-82;;;;;;;-80
2024-04-14 13:10;;-92;-79;;;;;;;-77
2024-04-14 13:20;;-90;-77;;;;;;;-75
2024-04-14 13:30;;-88;-75;;;;;;;-72
2024-04-14 13:40;;-85;-71;;;;;;;-69
2024-04-14 13:50;;-82;-68;;;;;;;-66
2024-04-14 14:00;;-79;-66;;;;;;;-63
2024-04-14 14:10;;-76;-62;;;;;;;-60
2024-04-14 14:20;;-73;-58;;;;;;;-56
2024-04-14 14:30;;-69;-53;;;;;;;-52
2024-04-14 14:40;;-66;-49;;;;;;;-48
2024-04-14 14:50;;-62;-44;;;;;;;-44
2024-04-14 15:00;;-58;-40;;;;;;;-40
2024-04-14 15:10;;-54;-36;;;;;;;-35
2024-04-14 15:20;;-50;-31;;;;;;;-31
2024-04-14 15:30;;-45;-27;;;;;;;-26
2024-04-14 15:40;;-40;-21;;;;;;;-21
2024-04-14 15:50;;-35;-16;;;;;;;-16
2024-04-14 16:00;;-29;-10;;;;;;;-10
2024-04-14 16:10;;-22;-4;;;;;;;-4
2024-04-14 16:20;;-15;3;;;;;;;3
2024-04-14 16:30;;-7;11;;;;;;;11
2024-04-14 16:40;;2;19;;;;;;;19
2024-04-14 16:50;;12;28;;;;;;;28
2024-04-14 17:00;;22;38;;;;;;;38
2024-04-14 17:10;;34;49;;;;;;;49
2024-04-14 17:20;;47;61;;;;;;;61
2024-04-14 17:30;;60;73;;;;;;;74
2024-04-14 17:40;;73;85;;;;;;;86
2024-04-14 17:50;;84;95;;;;;;;97
2024-04-14 18:00;;94;105;;;;;;;106
2024-04-14 18:10;;102;112;;;;;;;113
2024-04-14 18:20;;108;118;;;;;;;118
2024-04-14 18:30;;111;122;;;;;;;121
2024-04-14 18:40;;113;123;;;;;;;123
2024-04-14 18:50;;114;123;;;;;;;122
2024-04-14 19:00;;112;122;;;;;;;121
2024-04-14 19:10;;110;120;;;;;;;119
2024-04-14 19:20;;108;117;;;;;;;115
2024-04-14 19:30;;104;113;;;;;;;111
2024-04-14 19:40;;99;109;;;;;;;106
2024-04-14 19:50;;94;103;;;;;;;101
2024-04-14 20:00;;89;98;;;;;;;96
2024-04-14 20:10;;83;92;;;;;;;90
2024-04-14 20:20;;77;85;;;;;;;83
2024-04-14 20:30;;71;78;;;;;;;76
2024-04-14 20:40;;64;71;;;;;;;69
2024-04-14 20:50;;57;63;;;;;;;61
2024-04-14 21:00;;50;54;;;;;;;53
2024-04-14 21:10;;42;46;;;;;;;45
2024-04-14 21:20;;34;37;;;;;;;36
2024-04-14 21:30;;25;28;;;;;;;27
2024-04-14 21:40;;16;18;;;;;;;17
2024-04-14 21:50;;6;9;;;;;;;7
2024-04-14 22:00;;-4;-1;;;;;;;-3
2024-04-14 22:10;;-14;-11;;;;;;;-14
2024-04-14 22:20;;-25;-22;;;;;;;-24
2024-04-14 22:30;;-35;-32;;;;;;;-34
2024-04-14 22:40;;-45;-42;;;;;;;-44
2024-04-14 22:50;;-55;-52;;;;;;;-53
2024-04-14 23:00;;-65;-62;;;;;;;-63
2024-04-14 23:10;;-74;-71;;;;;;;-72
2024-04-14 23:20;;-83;-80;;;;;;;-80
2024-04-14 23:30;;-91;-88;;;;;;;-89
2024-04-14 23:40;;-99;-96;;;;;;;-96
2024-04-14 23:50;;-106;-103;;;;;;;-103
2024-04-15 00:00;;-112;-109;;;;;;;-109
2024-04-15 00:10;;-116;-113;;;;;;;-114
2024-04-15 00:20;;-120;-117;;;;;;;-118
2024-04-15 00:30;;-123;-120;;;;;;;-120
2024-04-15 00:40;;-125;-122;;;;;;;-122
2024-04-15 00:50;;-126;-123;;;;;;;-123
2024-04-15 01:00;;-126;-124;;;;;;;-123
2024-04-15 01:10;;-125;-123;;;;;;;-122
2024-04-15 01:20;;-124;-122;;;;;;;-120
2024-04-15 01:30;;-122;-121;;;;;;;-118
2024-04-15 01:40;;-120;-118;;;;;;;-116
2024-04-15 01:50;;-118;-115;;;;;;;-113
2024-04-15 02:00;;-116;-114;;;;;;;-111
2024-04-15 02:10;;-113;-110;;;;;;;-108
2024-04-15 02:20;;-110;-106;;;;;;;-104
2024-04-15 02:30;;-106;-102;;;;;;;-100
2024-04-15 02:40;;-102;-97;;;;;;;-95
2024-04-15 02:50;;-98;-93;;;;;;;-91
2024-04-15 03:00;;-93;-88;;;;;;;-86
2024-04-15 03:10;;-89;-82;;;;;;;-81
2024-04-15 03:20;;-83;-77;;;;;;;-75
2024-04-15 03:30;;-78;-71;;;;;;;-69
2024-04-15 03:40;;-72;-64;;;;;;;-63
2024-04-15 03:50;;-65;-57;;;;;;;-55
2024-04-15 04:00;;-58;-49;;;;;;;-48
2024-04-15 04:10;;-50;-41;;;;;;;-40
2024-04-15 04:20;;-42;-32;;;;;;;-31
2024-04-15 04:30;;-33;-23;;;;;;;-22
2024-04-15 04:40;;-23;-13;;;;;;;-12
2024-04-15 04:50;;-12;-2;;;;;;;-2
2024-04-15 05:00;;0;9;;;;;;;9
2024-04-15 05:10;;13;22;;;;;;;22
2024-04-15 05:20;;27;35;;;;;;;35
2024-04-15 05:30;;41;47;;;;;;;48
2024-04-15 05:40;;55;60;;;;;;;61
2024-04-15 05:50;;68;72;;;;;;;74
2024-04-15 06:00;;81;83;;;;;;;85
2024-04-15 06:10;;91;93;;;;;;;95
2024-04-15 06:20;;100;102;;;;;;;103
2024-04-15 06:30;;107;108;;;;;;;110
2024-04-15 06:40;;113;114;;;;;;;115
2024-04-15 06:50;;118;117;;;;;;;119
2024-04-15 07:00;;120;120;;;;;;;121
2024-04-15 07:10;;121;121;;;;;;;122
2024-04-15 07:20;;121;121;;;;;;;121
2024-04-15 07:30;;120;119;;;;;;;120
2024-04-15 07:40;;118;117;;;;;;;117
2024-04-15 07:50;;114;114;;;;;;;113
2024-04-15 08:00;;110;109;;;;;;;107
2024-04-15 08:10;;106;104;;;;;;;103
2024-04-15 08:20;;102;99;;;;;;;98
2024-04-15 08:30;;97;94;;;;;;;92
2024-04-15 08:40;;91;88;;;;;;;86
2024-04-15 08:50;;85;82;;;;;;;80
2024-04-15 09:00;;79;75;;;;;;;73
2024-04-15 09:10;;73;68;;;;;;;67
2024-04-15 09:20;;66;61;;;;;;;60
2024-04-15 09:30;;59;54;;;;;;;53
2024-04-15 09:40;;52;47;;;;;;;46
2024-04-15 09:50;;45;39;;;;;;;39
2024-04-15 10:00;;37;32;;;;;;;31
2024-04-15 10:10;;29;25;;;;;;;23
2024-04-15 10:20;;20;17;;;;;;;15
2024-04-15 10:30;;11;9;;;;;;;7
2024-04-15 10:40;;2;0;;;;;;;-1
2024-04-15 10:50;;-7;-8;;;;;;;-8
2024-04-15 11:00;;-16;-15;;;;;;;-16
2024-04-15 11:10;;-24;-23;;;;;;;-23
2024-04-15 11:20;;-32;-31;;;;;;;-31
2024-04-15 11:30;;-41;-38;;;;;;;-38
2024-04-15 11:40;;-48;-45;;;;;;;-44
2024-04-15 11:50;;-55;-51;;;;;;;-50
2024-04-15 12:00;;-62;-57;;;;;;;-56
2024-04-15 12:10;;-68;-62;;;;;;;-61
2024-04-15 12:20;;-74;-66;;;;;;;-66
2024-04-15 12:30;;-79;-70;;;;;;;-69
2024-04-15 12:40;;-82;-73;;;;;;;-72
2024-04-15 12:50;;-85;-75;;;;;;;-74
2024-04-15 13:00;;-87;-76;;;;;;;-74
2024-04-15 13:10;;-88;-75;;;;;;;-74
2024-04-15 13:20;;-88;-75;;;;;;;-74
2024-04-15 13:30;;-87;-73;;;;;;;-72
2024-04-15 13:40;;-86;-71;;;;;;;-71
2024-04-15 13:50;;-85;-70;;;;;;;-69
2024-04-15 14:00;;-84;-67;;;;;;;-66
2024-04-15 14:10;;-82;-64;;;;;;;-63
2024-04-15 14:20;;-79;-62;;;;;;;-61
2024-04-15 14:30;;-77;-60;;;;;;;-59
2024-04-15 14:40;;-73;-58;;;;;;;-55
2024-04-15 14:50;;-69;-53;;;;;;;-50
2024-04-15 15:00;;-65;-48;;;;;;;-45
2024-04-15 15:10;;-61;-44;;;;;;;-41
2024-04-15 15:20;;-56;-38;;;;;;;-36
2024-04-15 15:30;;-52;-32;;;;;;;-30
2024-04-15 15:40;;-47;-25;;;;;;;-24
2024-04-15 15:50;;-42;-20;;;;;;;-18
2024-04-15 16:00;;-37;-13;;;;;;;-12
2024-04-15 16:10;;-30;-6;;;;;;;-5
2024-04-15 16:20;;-23;1;;;;;;;2
2024-04-15 16:30;;-15;9;;;;;;;11
2024-04-15 16:40;;-6;17;;;;;;;19
2024-04-15 16:50;;4;27;;;;;;;30
2024-04-15 17:00;;14;40;;;;;;;41
2024-04-15 17:10;;26;52;;;;;;;53
2024-04-15 17:20;;38;64;;;;;;;65
2024-04-15 17:30;;51;75;;;;;;;76
2024-04-15 17:40;;63;86;;;;;;;87
2024-04-15 17:50;;76;97;;;;;;;98
2024-04-15 18:00;;89;108;;;;;;;108
2024-04-15 18:10;;101;118;;;;;;;118
2024-04-15 18:20;;111;127;;;;;;;128
2024-04-15 18:30;;121;134;;;;;;;135
2024-04-15 18:40;;129;140;;;;;;;140
2024-04-15 18:50;;136;145;;;;;;;145
2024-04-15 19:00;;140;148;;;;;;;148
2024-04-15 19:10;;143;150;;;;;;;151
2024-04-15 19:20;;146;152;;;;;;;153
2024-04-15 19:30;;147;154;;;;;;;155
2024-04-15 19:40;;147;156;;;;;;;156
2024-04-15 19:50;;146;156;;;;;;;156
2024-04-15 20:00;;144;154;;;;;;;153
2024-04-15 20:10;;142;152;;;;;;;151
2024-04-15 20:20;;139;149;;;;;;;148
2024-04-15 20:30;;135;145;;;;;;;144
2024-04-15 20:40;;131;141;;;;;;;140
2024-04-15 20:50;;126;137;;;;;;;136
2024-04-15 21:00;;120;132;;;;;;;130
2024-04-15 21:10;;115;126;;;;;;;124
2024-04-15 21:20;;109;121;;;;;;;119
2024-04-15 21:30;;103;115;;;;;;;113
2024-04-15 21:40;;98;109;;;;;;;107
2024-04-15 21:50;;91;103;;;;;;;101
2024-04-15 22:00;;85;98;;;;;;;95
2024-04-15 22:10;;78;91;;;;;;;89
2024-04-15 22:20;;70;84;;;;;;;81
2024-04-15 22:30;;63;76;;;;;;;74
2024-04-15 22:40;;54;67;;;;;;;66
2024-04-15 22:50;;45;58;;;;;;;58
2024-04-15 23:00;;36;49;;;;;;;49
2024-04-15 23:10;;27;41;;;;;;;40
2024-04-15 23:20;;19;32;;;;;;;31
2024-04-15 23:30;;10;24;;;;;;;22
2024-04-15 23:40;;2;15;;;;;;;14
2024-04-15 23:50;;-6;8;;;;;;;7
2024-04-16 00:00;;-14;0;;;;;;;0
2024-04-16 00:10;;-21;-5;;;;;;;-6
2024-04-16 00:20;;-27;-12;;;;;;;-12
2024-04-16 00:30;;-33;-17;;;;;;;-18
2024-04-16 00:40;;-39;-22;;;;;;;-23
2024-04-16 00:50;;-44;-27;;;;;;;-28
2024-04-16 01:00;;-48;-32;;;;;;;-32
2024-04-16 01:10;;-52;-35;;;;;;;-35
2024-04-16 01:20;;-55;-37;;;;;;;-37
2024-04-16 01:30;;-57;-38;;;;;;;-39
2024-04-16 01:40;;-59;-39;;;;;;;-39
2024-04-16 01:50;;-60;-39;;;;;;;-39
2024-04-16 02:00;;-60;-39;;;;;;;-39
2024-04-16 02:10;;-60;-39;;;;;;;-39
2024-04-16 02:20;;-60;-39;;;;;;;-38
2024-04-16 02:30;;-58;-38;;;;;;;-37
2024-04-16 02:40;;-56;-37;;;;;;;-36
2024-04-16 02:50;;-54;-35;;;;;;;-34
2024-04-16 03:00;;-51;-33;;;;;;;-32
2024-04-16 03:10;;-48;-29;;;;;;;-28
2024-04-16 03:20;;-44;-25;;;;;;;-24
2024-04-16 03:30;;-40;-21;;;;;;;-21
2024-04-16 03:40;;-36;-18;;;;;;;-18
2024-04-16 03:50;;-31;-14;;;;;;;-13
2024-04-16 04:00;;-26;-9;;;;;;;-8
2024-04-16 04:10;;-20;-3;;;;;;;-2
2024-04-16 04:20;;-14;3;;;;;;;5
2024-04-16 04:30;;-7;10;;;;;;;12
2024-04-16 04:40;;0;18;;;;;;;20
2024-04-16 04:50;;8;26;;;;;;;28
2024-04-16 05:00;;17;33;;;;;;;36
2024-04-16 05:10;;26;42;;;;;;;44
2024-04-16 05:20;;36;53;;;;;;;54
2024-04-16 05:30;;47;63;;;;;;;65
2024-04-16 05:40;;59;74;;;;;;;75
2024-04-16 05:50;;71;85;;;;;;;86
2024-04-16 06:00;;83;95;;;;;;;96
2024-04-16 06:10;;95;106;;;;;;;106
2024-04-16 06:20;;107;117;;;;;;;117
2024-04-16 06:30;;118;128;;;;;;;127
2024-04-16 06:40;;129;138;;;;;;;137
2024-04-16 06:50;;139;147;;;;;;;146
2024-04-16 07:00;;148;156;;;;;;;155
2024-04-16 07:10;;157;163;;;;;;;162
2024-04-16 07:20;;164;170;;;;;;;169
2024-04-16 07:30;;170;175;;;;;;;175
2024-04-16 07:40;;174;179;;;;;;;179
2024-04-16 07:50;;178;181;;;;;;;182
2024-04-16 08:00;;180;182;;;;;;;182
2024-04-16 08:10;;182;183;;;;;;;182
2024-04-16 08:20;;182;183;;;;;;;183
2024-04-16 08:30;;182;182;;;;;;;181
2024-04-16 08:40;;180;181;;;;;;;180
2024-04-16 08:50;;178;179;;;;;;;178
2024-04-16 09:00;;175;176;;;;;;;175
2024-04-16 09:10;;171;172;;;;;;;171
2024-04-16 09:20;;167;169;;;;;;;167
2024-04-16 09:30;;163;165;;;;;;;163
2024-04-16 09:40;;158;161;;;;;;;159
2024-04-16 09:50;;154;156;;;;;;;155
2024-04-16 10:00;;148;152;;;;;;;151
2024-04-16 10:10;;143;148;;;;;;;146
2024-04-16 10:20;;136;143;;;;;;;141
2024-04-16 10:30;;130;137;;;;;;;135
2024-04-16 10:40;;122;130;;;;;;;127
2024-04-16 10:50;;114;122;;;;;;;119
2024-04-16 11:00;;105;113;;;;;;;110
2024-04-16 11:10;;96;103;;;;;;;101
2024-04-16 11:20;;86;93;;;;;;;92
2024-04-16 11:30;;76;84;;;;;;;82
2024-04-16 11:40;;66;74;;;;;;;73
2024-04-16 11:50;;55;65;;;;;;;63
2024-04-16 12:00;;45;55;;;;;;;53
2024-04-16 12:10;;36;46;;;;;;;44
2024-04-16 12:20;;27;37;;;;;;;36
2024-04-16 12:30;;18;28;;;;;;;28
2024-04-16 12:40;;9;21;;;;;;;21
2024-04-16 12:50;;2;14;;;;;;;14
2024-04-16 13:00;;-5;8;;;;;;;8
2024-04-16 13:10;;-12;2;;;;;;;2
2024-04-16 13:20;;-18;-3;;;;;;;-3
2024-04-16 13:30;;-23;-6;;;;;;;-7
2024-04-16 13:40;;-27;-9;;;;;;;-10
2024-04-16 13:50;;-31;-12;;;;;;;-13
2024-04-16 14:00;;-34;-15;;;;;;;-16
2024-04-16 14:10;;-36;-17;;;;;;;-18
2024-04-16 14:20;;-38;-18;;;;;;;-19
2024-04-16 14:30;;-39;-19;;;;;;;-20
2024-04-16 14:40;;-40;-20;;;;;;;-20
2024-04-16 14:50;;-40;-20;;;;;;;-21
2024-04-16 15:00;;-40;-20;;;;;;;-21
2024-04-16 15:10;;-40;-20;;;;;;;-20
2024-04-16 15:20;;-39;-19;;;;;;;-19
2024-04-16 15:30;;-38;-18;;;;;;;-18
2024-04-16 15:40;;-36;-17;;;;;;;-17
2024-04-16 15:50;;-35;-16;;;;;;;-16
2024-04-16 16:00;;-33;-14;;;;;;;-14
2024-04-16 16:10;;-31;-12;;;;;;;-12
2024-04-16 16:20;;-29;-10;;;;;;;-10
2024-04-16 16:30;;-26;-8;;;;;;;-8
2024-04-16 16:40;;-24;-5;;;;;;;-6
2024-04-16 16:50;;-21;-3;;;;;;;-3
2024-04-16 17:00;;-19;0;;;;;;;0
2024-04-16 17:10;;-16;3;;;;;;;3
2024-04-16 17:20;;-13;5;;;;;;;6
2024-04-16 17:30;;-9;9;;;;;;;9
2024-04-16 17:40;;-6;12;;;;;;;12
2024-04-16 17:50;;-2;16;;;;;;;16
2024-04-16 18:00;;2;20;;;;;;;20
2024-04-16 18:10;;6;24;;;;;;;24
2024-04-16 18:20;;10;29;;;;;;;28
2024-04-16 18:30;;15;33;;;;;;;33
2024-04-16 18:40;;20;38;;;;;;;37
2024-04-16 18:50;;26;42;;;;;;;42
2024-04-16 19:00;;31;47;;;;;;;47
2024-04-16 19:10;;37;52;;;;;;;52
2024-04-16 19:20;;43;58;;;;;;;57
2024-04-16 19:30;;50;63;;;;;;;63
2024-04-16 19:40;;55;68;;;;;;;68
2024-04-16 19:50;;61;73;;;;;;;73
2024-04-16 20:00;;65;77;;;;;;;77
2024-04-16 20:10;;69;81;;;;;;;80
2024-04-16 20:20;;72;83;;;;;;;83
2024-04-16 20:30;;74;85;;;;;;;84
2024-04-16 20:40;;75;86;;;;;;;85
2024-04-16 20:50;;74;86;;;;;;;85
2024-04-16 21:00;;74;85;;;;;;;84
2024-04-16 21:10;;72;84;;;;;;;83
2024-04-16 21:20;;70;82;;;;;;;81
2024-04-16 21:30;;67;79;;;;;;;78
2024-04-16 21:40;;63;76;;;;;;;75
2024-04-16 21:50;;60;73;;;;;;;71
2024-04-16 22:00;;56;68;;;;;;;66
2024-04-16 22:10;;51;64;;;;;;;62
2024-04-16 22:20;;47;59;;;;;;;57
2024-04-16 22:30;;42;54;;;;;;;51
2024-04-16 22:40;;37;48;;;;;;;46
2024-04-16 22:50;;32;42;;;;;;;40
2024-04-16 23:00;;26;42;;;;;;;41
2024-04-16 23:10;;21;36;;;;;;;35
2024-04-16 23:20;;14;29;;;;;;;28
2024-04-16 23:30;;8;23;;;;;;;21
2024-04-16 23:40;;1;16;;;;;;;14
2024-04-16 23:50;;-7;9;;;;;;;7
2024-04-17 00:00;;-14;2;;;;;;;0
2024-04-17 00:10;;-21;-6;;;;;;;-8
2024-04-17 00:20;;-29;-13;;;;;;;-15
2024-04-17 00:30;;-36;-21;;;;;;;-23
2024-04-17 00:40;;-44;-29;;;;;;;-30
2024-04-17 00:50;;-51;-36;;;;;;;-37
2024-04-17 01:00;;-59;-43;;;;;;;-44
2024-04-17 01:10;;-65;-50;;;;;;;-51
2024-04-17 01:20;;-72;-57;;;;;;;-58
2024-04-17 01:30;;-78;-63;;;;;;;-64
2024-04-17 01:40;;-84;-69;;;;;;;-70
2024-04-17 01:50;;-89;-74;;;;;;;-76
2024-04-17 02:00;;-94;-81;;;;;;;-82
2024-04-17 02:10;;-99;-85;;;;;;;-87
2024-04-17 02:20;;-102;-90;;;;;;;-91
2024-04-17 02:30;;-106;-94;;;;;;;-95
2024-04-17 02:40;;-109;-98;;;;;;;-99
2024-04-17 02:50;;-111;-101;;;;;;;-101
2024-04-17 03:00;;-113;-103;;;;;;;-104
2024-04-17 03:10;;-114;-105;;;;;;;-105
2024-04-17 03:20;;-114;-106;;;;;;;-106
2024-04-17 03:30;;-114;-106;;;;;;;-106
2024-04-17 03:40;;-113;-106;;;;;;;-106
2024-04-17 03:50;;-112;-105;;;;;;;-104
2024-04-17 04:00;;-110;-103;;;;;;;-102
2024-04-17 04:10;;-108;-100;;;;;;;-100
2024-04-17 04:20;;-105;-98;;;;;;;-97
2024-04-17 04:30;;-102;-94;;;;;;;-94
2024-04-17 04:40;;-98;-91;;;;;;;-90
2024-04-17 04:50;;-94;-87;;;;;;;-86
2024-04-17 05:00;;-90;-84;;;;;;;-82
2024-04-17 05:10;;-86;-80;;;;;;;-78
2024-04-17 05:20;;-81;-76;;;;;;;-74
2024-04-17 05:30;;-77;-72;;;;;;;-70
2024-04-17 05:40;;-72;-67;;;;;;;-64
2024-04-17 05:50;;-67;-61;;;;;;;-59
2024-04-17 06:00;;-61;-56;;;;;;;-54
2024-04-17 06:10;;-55;-49;;;;;;;-47
2024-04-17 06:20;;-48;-42;;;;;;;-41
2024-04-17 06:30;;-41;-35;;;;;;;-34
2024-04-17 06:40;;-34;-28;;;;;;;-27
2024-04-17 06:50;;-26;-20;;;;;;;-19
2024-04-17 07:00;;-18;-12;;;;;;;-11
2024-04-17 07:10;;-10;-4;;;;;;;-3
2024-04-17 07:20;;-1;5;;;;;;;6
2024-04-17 07:30;;8;14;;;;;;;15
2024-04-17 07:40;;17;23;;;;;;;24
2024-04-17 07:50;;27;32;;;;;;;33
2024-04-17 08:00;;36;41;;;;;;;42
2024-04-17 08:10;;46;50;;;;;;;51
2024-04-17 08:20;;55;58;;;;;;;59
2024-04-17 08:30;;63;66;;;;;;;67
2024-04-17 08:40;;71;74;;;;;;;74
2024-04-17 08:50;;77;80;;;;;;;80
2024-04-17 09:00;;83;86;;;;;;;86
2024-04-17 09:10;;88;91;;;;;;;91
2024-04-17 09:20;;92;95;;;;;;;95
2024-04-17 09:30;;95;97;;;;;;;98
2024-04-17 09:40;;97;99;;;;;;;100
2024-04-17 09:50;;98;101;;;;;;;101
2024-04-17 10:00;;98;102;;;;;;;102
2024-04-17 10:10;;98;102;;;;;;;101
2024-04-17 10:20;;97;101;;;;;;;100
2024-04-17 10:30;;95;100;;;;;;;99
2024-04-17 10:40;;94;99;;;;;;;97
2024-04-17 10:50;;91;97;;;;;;;96
2024-04-17 11:00;;89;95;;;;;;;93
2024-04-17 11:10;;86;92;;;;;;;90
2024-04-17 11:20;;82;88;;;;;;;86
2024-04-17 11:30;;79;85;;;;;;;83
2024-04-17 11:40;;75;81;;;;;;;78
2024-04-17 11:50;;70;76;;;;;;;73
2024-04-17 12:00;;65;71;;;;;;;68
2024-04-17 12:10;;60;65;;;;;;;63
2024-04-17 12:20;;55;59;;;;;;;57
2024-04-17 12:30;;49;53;;;;;;;50
2024-04-17 12:40;;42;46;;;;;;;43
2024-04-17 12:50;;35;39;;;;;;;35
2024-04-17 13:00;;27;30;;;;;;;27
2024-04-17 13:10;;20;22;;;;;;;19
2024-04-17 13:20;;12;13;;;;;;;11
2024-04-17 13:30;;4;5;;;;;;;2
2024-04-17 13:40;;-3;-3;;;;;;;-5
2024-04-17 13:50;;-10;-10;;;;;;;-13
2024-04-17 14:00;;-18;-11;;;;;;;-11
2024-04-17 14:10;;-24;-18;;;;;;;-17
2024-04-17 14:20;;-31;-23;;;;;;;-23
2024-04-17 14:30;;-37;-29;;;;;;;-29
2024-04-17 14:40;;-43;-34;;;;;;;-34
2024-04-17 14:50;;-48;-39;;;;;;;-39
2024-04-17 15:00;;-53;-43;;;;;;;-43
2024-04-17 15:10;;-58;-47;;;;;;;-47
2024-04-17 15:20;;-61;-50;;;;;;;-50
2024-04-17 15:30;;-65;-53;;;;;;;-53
2024-04-17 15:40;;-67;-55;;;;;;;-55
2024-04-17 15:50;;-70;-56;;;;;;;-56
2024-04-17 16:00;;-71;-57;;;;;;;-57
2024-04-17 16:10;;-72;-58;;;;;;;-57
2024-04-17 16:20;;-73;-58;;;;;;;-58
2024-04-17 16:30;;-73;-57;;;;;;;-57
2024-04-17 16:40;;-72;-57;;;;;;;-56
2024-04-17 16:50;;-71;-56;;;;;;;-55
2024-04-17 17:00;;-70;-55;;;;;;;-54
2024-04-17 17:10;;-68;-53;;;;;;;-52
2024-04-17 17:20;;-67;-52;;;;;;;-51
2024-04-17 17:30;;-65;-50;;;;;;;-49
2024-04-17 17:40;;-63;-48;;;;;;;-47
2024-04-17 17:50;;-60;-46;;;;;;;-45
2024-04-17 18:00;;-58;-43;;;;;;;-42
2024-04-17 18:10;;-55;-41;;;;;;;-40
2024-04-17 18:20;;-52;-38;;;;;;;-37
2024-04-17 18:30;;-49;-35;;;;;;;-34
2024-04-17 18:40;;-45;-31;;;;;;;-30
2024-04-17 18:50;;-41;-27;;;;;;;-26
2024-04-17 19:00;;-37;-24;;;;;;;-23
2024-04-17 19:10;;-33;-20;;;;;;;-19
2024-04-17 19:20;;-29;-15;;;;;;;-14
2024-04-17 19:30;;-24;-11;;;;;;;-10
2024-04-17 19:40;;-19;-6;;;;;;;-5
2024-04-17 19:50;;-14;-1;;;;;;;0
2024-04-17 20:00;;-9;5;;;;;;;5
2024-04-17 20:10;;-4;10;;;;;;;11
2024-04-17 20:20;;2;16;;;;;;;16
2024-04-17 20:30;;9;22;;;;;;;22
2024-04-17 20:40;;15;29;;;;;;;29